Flag for U.S.A. Weather past 2 weeks in Wichita Falls, Texas, U.S.A.

Now
40 °F

Light rain. Fog.


Feels Like: 33 °F
Forecast: 41 / 52 °F
Wind: 10 mph from Southeast

Location: Wichita Falls - Sheppard Air Force Base

Current Time: Dec 18, 2014 at 5:42:01 AM

Latest Report: Dec 18, 2014 at 4:52 AM


Visibility: 2 mi

Pressure: 30.08 "Hg

Humidity: 97%

Dew point: 39 °F

Location of Wichita FallsLocation

Historic Weather in Wichita Falls — Graph

°F

Wichita Falls temperature yesterday

Maximum temperature yesterday: 42 °F (at 2:52 AM)
Minimum temperature yesterday: 39 °F (at 2:00 PM)
Average temperature yesterday: 40 °F

Past Weeks' High & Low Weather Summary

 TemperatureHumidityPressure
High73 °F (Dec 14, 3:52 PM)100% (Dec 4, 2:52 AM)30.46 "Hg (Dec 4, 2:52 AM)
Low32 °F (Dec 16, 7:52 AM)23% (Dec 14, 5:52 PM)29.65 "Hg (Dec 14, 3:52 PM)
Average51 °F82%30.15 "Hg
* Reported Dec 3 3:52 AM — Dec 18 3:52 AM, Wichita Falls, Weather by CustomWeather, © 2014

Note: Actual official high and low records may vary slightly from our data, if they occured in-between our weather recording intervals... More about our weather records

Advertising

Wichita Falls weather history for previous 24 hours

 ConditionsComfort  
Time TempWeatherWind HumidityBarometerVisibility
3:52 AM
Dec 18
40 °FFog.6 mph100%30.09 "Hg1 mi
2:52 AM40 °FFog.9 mph97%30.09 "Hg1 mi
1:52 AM40 °FFog.9 mph97%30.10 "Hg1 mi
12:52 AM40 °FFog.12 mph97%30.11 "Hg1 mi
11:52 PM
Dec 17
40 °FLow clouds.7 mph97%30.14 "Hg7 mi
10:52 PM40 °FLow clouds.7 mph93%30.14 "Hg8 mi
9:52 PM40 °FLow clouds.9 mph93%30.12 "Hg7 mi
8:52 PM40 °FLow clouds.14 mph93%30.12 "Hg8 mi
7:52 PM39 °FDrizzle. Low clouds.12 mph93%30.13 "Hg8 mi
6:52 PM39 °FDrizzle. Fog.12 mph96%30.12 "Hg5 mi
5:52 PM39 °FDrizzle. Fog.9 mph96%30.11 "Hg4 mi
4:52 PM40 °FDrizzle. Low clouds.9 mph93%30.11 "Hg9 mi
3:52 PM39 °FRain. Fog.13 mph93%30.09 "Hg3 mi
2:52 PM39 °FRain. Fog.12 mph93%30.09 "Hg2 mi
2:00 PM39 °FThunderstorms. Fog.9 mph93%30.10 "Hg1 mi
12:52 PM40 °FThunderstorms. Overcast.3 mph86%30.16 "Hg8 mi
11:52 AM40 °FOvercast.14 mph89%30.16 "Hg10 mi
10:52 AM40 °FLight rain. Overcast.14 mph86%30.21 "Hg10 mi
9:52 AM41 °FOvercast.12 mph80%30.24 "Hg10 mi
8:52 AM41 °FLight rain. Overcast.12 mph82%30.23 "Hg10 mi
7:52 AM41 °FOvercast.7 mph82%30.24 "Hg10 mi
6:52 AM40 °FOvercast.9 mph83%30.22 "Hg10 mi
5:52 AM40 °FLight rain. Overcast.12 mph83%30.20 "Hg8 mi
Weather by CustomWeather, © 2014

See weather overviewHow to use our weather pages